Flag for U.S.A. Weather past 2 weeks in Youngstown, Ohio, U.S.A.

Now
19 °F

Light snow. Ice fog.


Feels Like: 6 °F
Forecast: 23 / 29 °F
Wind: 13 mph from Northeast

Location: Youngstown-Warren Regional Airport

Current Time: Jan 26, 2015 at 1:26:34 AM

Latest Report: Jan 26, 2015 at 12:51 AM


Visibility: 1 mi

Pressure: 29.85 "Hg

Humidity: 88%

Dew point: 16 °F

Location of YoungstownLocation

Historic Weather in Youngstown — Graph

°F

Youngstown temperature yesterday

Maximum temperature yesterday: 33 °F (at 2:51 AM)
Minimum temperature yesterday: 19 °F (at 9:51 PM)
Average temperature yesterday: 27 °F

Past Weeks' High & Low Weather Summary

 TemperatureHumidityPressure
High46 °F (Jan 18, 1:51 AM)96% (Jan 12, 3:51 AM)30.69 "Hg (Jan 12, 3:51 AM)
Low1 °F (Jan 14, 7:51 AM)38% (Jan 11, 2:51 PM)29.59 "Hg (Jan 24, 2:51 PM)
Average26 °F77%30.12 "Hg
* Reported Jan 10 11:51 PM — Jan 25 11:51 PM, Youngstown, Weather by CustomWeather, © 2014

Note: Actual official high and low records may vary slightly from our data, if they occured in-between our weather recording intervals... More about our weather records

Advertising

Youngstown weather history for previous 24 hours

 ConditionsComfort  
Time TempWeatherWind HumidityBarometerVisibility
11:51 PM
Jan 25
19 °FLight snow. Ice fog.12 mph88%29.87 "Hg1 mi
10:51 PM19 °FLight snow. Ice fog.10 mph88%29.88 "Hg2 mi
9:51 PM19 °FLight snow. Ice fog.10 mph88%29.89 "Hg1 mi
8:51 PM20 °FLight snow. Ice fog.12 mph85%29.89 "Hg3 mi
7:51 PM22 °FLight snow. Mostly cloudy.12 mph85%29.88 "Hg7 mi
6:51 PM24 °FLight snow. Ice fog.10 mph84%29.87 "Hg1 mi
5:51 PM24 °FLight snow. Ice fog.10 mph84%29.86 "Hg1 mi
4:51 PM25 °FLight snow. Ice fog.8 mph85%29.85 "Hg1 mi
3:51 PM26 °FLight snow. Ice fog.10 mph81%29.85 "Hg1 mi
2:51 PM27 °FLight snow. Cloudy.8 mph78%29.83 "Hg7 mi
1:51 PM27 °FMore clouds than sun.9 mph78%29.84 "Hg10 mi
12:51 PM28 °FLight snow. Mostly cloudy.7 mph81%29.85 "Hg9 mi
11:51 AM28 °FLight snow. Mostly cloudy.10 mph81%29.86 "Hg7 mi
10:51 AM28 °FLight snow. Ice fog.8 mph93%29.85 "Hg1 mi
9:51 AM28 °FLight snow. Ice fog.10 mph89%29.82 "Hg5 mi
8:51 AM29 °FLight freezing rain. Ice fog.13 mph89%29.81 "Hg2 mi
7:51 AM33 °FFog.No wind96%29.78 "Hg1 mi
6:51 AM33 °FLight snow. Fog.3 mph96%29.76 "Hg1 mi
5:51 AM33 °FLight snow. Fog.3 mph96%29.75 "Hg1 mi
4:51 AM33 °FLight snow. Fog.6 mph92%29.75 "Hg1 mi
3:51 AM33 °FLight snow. Fog.8 mph92%29.74 "Hg2 mi
2:51 AM33 °FFog.10 mph88%29.73 "Hg4 mi
1:51 AM32 °FLight snow. Ice fog.10 mph92%29.71 "Hg2 mi
Weather by CustomWeather, © 2014

See weather overviewHow to use our weather pages